Weaver Creek Cutoff Weather Center

Moon Phase Calendar



Weaver Creek Cutoff Water Level
Online Cameras

 


      

Current Conditions in Aberdeen
5/23/2022 9:21:03 PM

70°F
Feels Like 71
Clear
Humidity
93%
Pressure
30.06"
Wind
8 mph (N)
Dew Point
68°F
UV Index
0/10 (Low)
Visibility
6 mi

Hourly Forecast

Date & Time Mon, May 23
9:00 PM
Mon, May 23
10:00 PM
Mon, May 23
11:00 PM
Tue, May 24
12:00 AM
Tue, May 24
1:00 AM
Tue, May 24
2:00 AM
Tue, May 24
3:00 AM
Tue, May 24
4:00 AM
Tue, May 24
5:00 AM
Tue, May 24
6:00 AM
Tue, May 24
7:00 AM
Tue, May 24
8:00 AM
Tue, May 24
9:00 AM
Tue, May 24
10:00 AM
Tue, May 24
11:00 AM
Tue, May 24
12:00 PM
Tue, May 24
1:00 PM
Tue, May 24
2:00 PM
Tue, May 24
3:00 PM
Tue, May 24
4:00 PM
Tue, May 24
5:00 PM
Tue, May 24
6:00 PM
Tue, May 24
7:00 PM
Tue, May 24
8:00 PM
Tue, May 24
9:00 PM
Tue, May 24
10:00 PM
Tue, May 24
11:00 PM
Wed, May 25
12:00 AM
Wed, May 25
1:00 AM
Wed, May 25
2:00 AM
Wed, May 25
3:00 AM
Wed, May 25
4:00 AM
Wed, May 25
5:00 AM
Wed, May 25
6:00 AM
Wed, May 25
7:00 AM
Wed, May 25
8:00 AM
Wed, May 25
9:00 AM
Wed, May 25
10:00 AM
Wed, May 25
11:00 AM
Wed, May 25
12:00 PM
Wed, May 25
1:00 PM
Wed, May 25
2:00 PM
Wed, May 25
3:00 PM
Wed, May 25
4:00 PM
Wed, May 25
5:00 PM
Wed, May 25
6:00 PM
Wed, May 25
7:00 PM
Wed, May 25
8:00 PM
Condition
Clear

Clouds

Clouds

Clouds

Clouds

Clouds

Clouds

Clouds

Clouds

Clouds

Clouds

Clouds

Clouds

Clouds

Clouds

Clouds

Clouds

Clouds

Clouds

Clouds

Clouds

Clouds

Clouds

Clouds

Clouds

Rain

Rain

Rain

Rain

Rain

Clouds

Clouds

Clouds

Clouds

Clouds

Clouds

Clouds

Clouds

Clouds

Clouds

Rain

Rain

Rain

Rain

Rain

Rain

Rain

Rain
Temperature 70°F70°F69°F67°F66°F64°F64°F64°F64°F64°F66°F70°F74°F77°F79°F81°F82°F81°F76°F72°F74°F76°F74°F72°F70°F69°F69°F69°F68°F68°F68°F68°F68°F68°F70°F72°F75°F79°F83°F85°F84°F82°F81°F74°F72°F73°F72°F72°F
Feels Like 71°F71°F70°F68°F67°F65°F65°F64°F64°F64°F67°F71°F75°F78°F79°F83°F84°F82°F76°F72°F75°F77°F75°F72°F71°F70°F70°F70°F69°F69°F69°F70°F69°F69°F71°F73°F76°F79°F86°F88°F87°F86°F85°F75°F73°F74°F73°F72°F
Cloudiness 0%20%40%60%80%100%100%100%100%100%100%100%100%100%100%100%100%100%100%100%100%98%93%100%99%99%96%97%93%71%75%84%77%80%84%100%100%85%77%72%74%100%100%100%100%100%100%100%
Visibility 6 mi6 mi6 mi6 mi6 mi6 mi6 mi6 mi6 mi6 mi6 mi6 mi6 mi6 mi6 mi6 mi6 mi6 mi6 mi6 mi6 mi6 mi6 mi6 mi6 mi6 mi6 mi6 mi6 mi6 mi6 mi6 mi6 mi6 mi6 mi6 mi6 mi6 mi6 mi6 mi6 mi6 mi6 mi5 mi6 mi6 mi6 mi6 mi
Precipitation 12%8%5%5%3%0%0%0%0%0%0%3%6%10%24%28%26%6%3%4%9%25%48%26%43%54%68%85%89%51%50%44%35%30%28%0%0%0%2%1%33%58%65%77%80%85%86%66%
Humidity 93%92%92%95%97%97%98%98%98%98%93%89%83%73%65%59%54%57%68%78%77%76%81%86%90%93%95%95%95%96%96%95%96%96%94%90%83%71%61%57%61%64%67%85%89%86%86%83%
Dew Point 68°F67°F67°F66°F65°F63°F63°F63°F63°F63°F64°F66°F68°F68°F66°F65°F64°F64°F64°F64°F66°F67°F68°F67°F67°F67°F67°F67°F67°F67°F67°F67°F67°F67°F68°F68°F69°F68°F68°F68°F68°F69°F69°F69°F69°F68°F68°F66°F
Pressure 30.06"30.06"30.03"30.03"30"29.97"30"29.97"29.97"30"30"30"30"30"29.97"29.97"29.94"29.94"29.94"29.94"29.91"29.94"29.94"29.91"29.94"29.94"29.94"29.94"29.94"29.94"29.94"29.94"29.94"29.94"29.94"29.97"29.97"29.97"29.97"29.94"29.91"29.91"29.91"29.85"29.88"29.88"29.91"29.91"
Wind Speed 6.6 mph7.2 mph6.8 mph6.6 mph5.7 mph5.2 mph4.9 mph5.5 mph5.1 mph5.5 mph6.3 mph9 mph11.4 mph13 mph12.8 mph13 mph13.5 mph13.4 mph12.9 mph10.9 mph13.2 mph12 mph11.2 mph10 mph9.6 mph10.1 mph10.4 mph11.2 mph11.8 mph10.6 mph9.6 mph10.2 mph10.4 mph11.6 mph11.8 mph13.2 mph14.2 mph14.9 mph15.5 mph15.8 mph14.5 mph12.3 mph9.7 mph13.5 mph6.4 mph7.3 mph13.9 mph12.2 mph
Wind
Direction
54°
NE
64°
ENE
62°
ENE
74°
ENE
75°
ENE
79°
E
91°
E
87°
E
77°
ENE
85°
E
110°
ESE
133°
SE
147°
SSE
161°
SSE
166°
SSE
166°
SSE
168°
SSE
172°
S
170°
S
158°
SSE
148°
SSE
153°
SSE
144°
SE
131°
SE
126°
SE
125°
SE
132°
SE
136°
SE
139°
SE
148°
SSE
146°
SE
146°
SE
146°
SE
144°
SE
150°
SSE
150°
SSE
150°
SSE
167°
SSE
167°
SSE
171°
S
170°
S
161°
SSE
160°
SSE
155°
SSE
114°
ESE
168°
SSE
165°
SSE
144°
SE

Daily Forecast

Date High Low Precip. Humidity
Today
May 23

Rain
77 °F
67 °F
97%
77%
Tuesday
May 24

Rain
82 °F
64 °F
68%
59%
Wednesday
May 25

Rain
85 °F
68 °F
89%
57%
Thursday
May 26

Rain
75 °F
62 °F
100%
71%
Friday
May 27

Rain
70 °F
57 °F
92%
77%
Saturday
May 28

Rain
78 °F
58 °F
20%
54%
Sunday
May 29

Clear
85 °F
58 °F
0%
54%
Monday
May 30

Clouds
92 °F
68 °F
0%
47%
Tuesday
May 31

Clear
92 °F
71 °F
0%
50%
Wednesday
Jun 1

Clouds
85 °F
71 °F
27%
68%
Thursday
Jun 2

Clouds
76 °F
61 °F
0%
37%
Friday
Jun 3

Clear
75 °F
52 °F
0%
35%
Saturday
Jun 4

Clouds
76 °F
52 °F
0%
44%
Sunday
Jun 5

Rain
71 °F
54 °F
34%
69%
Monday
Jun 6

Rain
89 °F
60 °F
34%
46%
Tuesday
Jun 7

Clear
93 °F
69 °F
0%
44%

Temperature 8-14 Day Outlook



Precipitation 8-14 Day Outlook




Quick Links
Weaver Creek Cutoff News
Weaver Creek Cutoff Photos
Weaver Creek Cutoff Videos




About Us
Contact Us
Site Map
Search Site
Advertise With Us
   
Weaver-Creek.LakesOnline.com
THE WEAVER CREEK CUTOFF WEBSITE

Copyright 2022, Lakes Online
Privacy    |    Legal